星链-5609 (STARLINK-5609 )

导读 | 星芒AI

STARLINK-5609 是 SpaceX Starlink 项目中的一颗低轨通信卫星,属于第 11 批组网发射的卫星之一。该卫星于 2021 年 10 月 31 日由猎鹰 9 号火箭送入近地轨道,旨在为全球提供高速互联网服务。Starlink 卫星采用先进推进系统和激光通信技术,以提升网络稳定性和减少延迟。STARLINK-5609 与其他 Starlink 卫星协同工作,支持偏远地区的宽带接入,推动全球互联网覆盖的扩展。

基本信息
目录编号:
55348
目录名称:
STARLINK-5609
国际标识:
2023-013T
轨道中心:
EARTH
卫星名称:
星链-5609
卫星全名:
星链-5609 (STARLINK-5609 )
卫星状态:
在轨 (已飞行1060 天)
发射日期:
2023-01-26 UTC
国别 :
美国 (US)
星等 :
--
轨道信息
数据来源 国际轨道数据
星历时间: 2025-12-21T09:47:45+0800
12小时前
查看轨道信息
半长轴: 6937.223km
偏心率: 0.0001107
轨道倾角: 43.006°
近地点辐角 276.681°
升交点赤经 7.510°
平近点角 83.390°
近地点: 558.318km
远地点: 559.854km
周期: 95.838分钟
每日圈数: 15.025341
详细信息
固有亮度:
5
最大亮度:
2.5
卫星平台:
Starlink v1.5
覆盖范围:
全球
运营商:
太空探索技术公司
运营商所在国:
美国
制造商(研发单位):
太空探索技术公司
制造商所在国:
美国
使用方式:
暂无
卫星简介
星链(Starlink)计划是由太空探索技术公司(SpaceX)提出的一个巨型低轨卫星互联网星座项目,计划在2019年至2024年间在太空搭建由约1.2万颗卫星组成的“星链”网络,其中1584颗将部署在地球上空550千米处的近地轨道,并从2020年开始工作。该卫星仍在工作。
2D轨道图
3D轨道图
轨道高度分析图
轨道倾角分析图
轨道综合分析图
查看轨道综合分析图